Regional Weather Roundup
Issued by NWS

Home | Current Version | Previous Version | Text Only | Print | Product List | Glossary On
Versions: 1 2 3 4 5 6 7 8 9 10 11 12 13 14 15 16 17 18 19 20 21 22 23 24 25 26 27 28 29 30 31 32 33 34 35 36 37 38 39 40 41 42 43 44 45 46 47 48 49 50
000
ASUS42 KTBW 270810
RWRFL
FLORIDA REGIONAL WEATHER ROUNDUP
NATIONAL WEATHER SERVICE TAMPA BAY RUSKIN FL
300 AM EST THU NOV 27 2014

NOTE: "FAIR" INDICATES FEW OR NO CLOUDS BELOW 12,000 FEET WITH NO
SIGNIFICANT WEATHER AND/OR OBSTRUCTIONS TO VISIBILITY.


FLZ001>010-012>015-112-114-115-270900-
PANHANDLE FLORIDA

CITY           SKY/WX    TMP DP  RH WIND       PRES   REMARKS
PENSACOLA      CLEAR     54  45  71 W9        30.23R
PENSACOLA NAS  CLEAR     56  46  69 W8        30.23R
MILTON NAS     CLEAR     49  42  77 NW10      30.23R WCI  45
CRESTVIEW      CLEAR     52  43  71 W9        30.23R
DUKE FIELD     FAIR      52  44  73 W9        30.22R
VALPARAISO     CLEAR     56  46  70 W10       30.22R
MARY ESTHER    CLEAR     57  42  57 NW12      30.21R
TRI COUNTY     FAIR      52  44  74 W5        30.21R
PANAMA CITY    FAIR      55  46  71 W12       30.20R
TYNDALL AFB    CLEAR     62  52  68 W16G28    30.20F
APALACHICOLA   CLEAR     53  47  79 W3        30.21F

STATION/POSITION SKY/WX   TEMP    WIND        PRES    WAVE   SWELL
                          AIR SEA DIR/SP/G            HT/PER HT/PER
                          (F)     (DEG/KT/KT) (MB)    (FT/S) (FT/S)
30.1N   87.6W              63 67  290/ 25/ 29 1022.9R   7/ 6
29.2N   88.2W              66 70  290/ 29/ 37 1025.1F   6/ 5
28.7N   86.0W              68 76  300/ 21/ 27 1023.9F   6/ 5
PANAMA CITY BEAC           64 63  280/ 26/ 31 1022.3S
CAPE SAN BLAS    NOT AVBL
TOWER C                    65     280/ 22/ 24 1023.1F
28.5N   84.5W              67 71  290/ 16/ 19 1023.9S   3/ 6   2/ 8

$$
FLZ011-016>038-118-127-128-134-139-239-270900-
NORTH FLORIDA

CITY           SKY/WX    TMP DP  RH WIND       PRES   REMARKS
MARIANNA       CLEAR     53  46  77 W12       30.20R
TALLAHASSEE    CLEAR     39  34  82 CALM      30.19F
PERRY          CLEAR     40  39  99 CALM      30.22S
CROSS CITY       N/A     38  35  89 CALM      30.23S
LAKE CITY      FAIR      39  36  87 W3        30.21S
GAINESVILLE    CLEAR     38  36  92 CALM      30.22F
MAYPORT NAS    CLEAR     43  37  79 SW6       30.20S WCI  39
JACKSONVILLE   CLEAR     41  37  86 CALM      30.19F
JAX NAS        CLEAR     47  37  68 W10       30.21F WCI  42
JAX CRAIG      CLEAR     43  38  82 CALM      30.20F
JAX CECIL      CLEAR     36  36 100 CALM      30.21F
FERNANDINA BEA FAIR      54  37  54 W8        30.18S
ST AUGUSTINE   CLEAR     45  38  76 W7        30.22F WCI  41

STATION/POSITION SKY/WX   TEMP    WIND        PRES    WAVE   SWELL
                          AIR SEA DIR/SP/G            HT/PER HT/PER
                          (F)     (DEG/KT/KT) (MB)    (FT/S) (FT/S)
SHELL POINT                54     250/  6/  7   N/A
KEATON BEACH               59     250/  7/  8 1023.3F
CEDAR KEY                  55      60/  1/  1 1024.5R
FERNANDINA                 49 62  240/  7/  9 1021.7S
30.7N   81.3W                 62                N/A     2/11
MAYPORT                    51 63  240/  7/  8   N/A
31.4N   80.9W              57 64  260/ 16/ 19 1021.2F   3/ 4   2/10
ST AUGUSTINE               48     270/  6/  8 1023.5F

$$
FLZ040-043>046-052-053-057-058-063-144-270900-
INTERIOR CENTRAL FLORIDA

CITY           SKY/WX    TMP DP  RH WIND       PRES   REMARKS
OCALA          CLEAR     39  36  87 CALM      30.24S
THE VILLAGES     N/A     43  41  93 CALM      30.15S
LEESBURG       CLEAR     50  41  71 NW6       30.25S
SANFORD        CLEAR     46  42  86 NW6       30.24R WCI  43
ORLANDO EXEC   CLEAR     50  44  80 NW8       30.24R
ORLANDO INTL   CLEAR     49  46  90 CALM      30.24S
WINTER HAVEN   CLEAR     50  43  77 NW6       30.25S
LAKELAND       CLEAR     46  45  93 NW3       30.25S
BARTOW         FAIR      46  45  93 NW3       30.26R
OKEECHOBEE     CLEAR     45  45 100 CALM      30.22S

$$
FLZ041-047-054-059-064-141-147-270900-
EAST CENTRAL FLORIDA

CITY           SKY/WX    TMP DP  RH WIND       PRES   REMARKS
DAYTONA BEACH  CLEAR     49  43  80 W8        30.24R
DELAND         SUNNY    N/A N/A N/A CALM      30.25R
JFK SPACE CTR  CLEAR     50  47  90 NW6       30.23R
CAPE CANAVERAL CLEAR     52  49  89 NW8       30.21S
PATRICK AFB    CLEAR     55  48  76 NW15      30.22R
MELBOURNE      CLEAR     48  47  96 NW8       30.22R WCI  44
VERO BEACH     CLEAR     47  45  93 NW7       30.21R WCI  44
FT PIERCE      CLEAR     47  46  97 NW6       30.20S WCI  44
STUART         CLEAR     52  50  93 NW7       30.21R

STATION/POSITION SKY/WX   TEMP    WIND        PRES    WAVE   SWELL
                          AIR SEA DIR/SP/G            HT/PER HT/PER
                          (F)     (DEG/KT/KT) (MB)    (FT/S) (FT/S)
28.5N   80.2W              62 76  320/ 16/ 19 1022.3R
28.9N   78.5W              68 77  320/ 12/ 17 1021.0R   7/ 7   5/ 7
TRIDENT PIER               55 69  310/ 10/ 13 1022.9S
28.4N   80.5W                 69                N/A     2/ 9
27.6N   80.2W                 77                N/A     4/ 9

$$
FLZ050-056-061-142-242-148-248-149-249-151-251-155-255-
160-260-270900-
WEST CENTRAL FLORIDA

CITY           SKY/WX    TMP DP  RH WIND       PRES   REMARKS
CRYSTAL RIVER  FAIR      37  37 100 CALM      30.25S
INVERNESS      FAIR      37  37 100 CALM      30.26S
BROOKSVILLE    CLEAR     40  38  93 CALM      30.27R
ZEPHYRHILLS    FAIR      41  39  93 CALM      30.26S
CLEARWATER     CLEAR     48  44  86 CALM      30.26R
TAMPA INTL     CLEAR     50  45  83 CALM      30.26R
TAMPA EXEC     CLEAR     46  45  93 CALM      30.27R
PLANT CITY     CLEAR     50 N/A N/A NW5       30.27R
MACDILL AFB    CLEAR     52  48  86 N6        30.26R
PETER O KNIGHT CLEAR     54  46  76 CALM      30.26R
ST PETERSBURG  CLEAR     56  43  61 N3        30.25R
SARASOTA       CLEAR     45  44  97 CALM      30.24R
VENICE         FAIR      48  45  87 NE6       30.26R

STATION/POSITION SKY/WX   TEMP    WIND        PRES    WAVE   SWELL
                          AIR SEA DIR/SP/G            HT/PER HT/PER
                          (F)     (DEG/KT/KT) (MB)    (FT/S) (FT/S)
CEDAR KEY                  55      60/  1/  1 1024.5R
28.5N   84.5W              67 71  290/ 16/ 19 1023.9S   3/ 6   2/ 8
27.3N   84.3W                 78                N/A     5/ 7
CLEARWATER BEACH           62 64  330/ 11/ 13 1024.1S
MIDDLE TAMPA BAY           59     350/ 12/ 13 1024.6R
VENICE                     55 67  360/  9/ 10 1023.7R

$$
FLZ066-069-070-075>078-162-262-165-265-270900-
SOUTHWEST FLORIDA AND KEYS

CITY           SKY/WX    TMP DP  RH WIND       PRES   REMARKS
PUNTA GORDA    CLEAR     49  46  90 N6        30.26R
FT MYERS       CLEAR     52  45  77 N7        30.22R
SOUTHWEST INTL CLEAR     49  45  86 CALM      30.22S
NAPLES         CLEAR     50  46  86 N3        30.21S
MARCO ISLAND   SUNNY     52  46  82 NE3       30.21R
MARATHON       CLEAR     61  52  72 N16G24    30.17S
KEY WEST NAS   PTCLDY    62  32  32 N16       30.18F
KEY WEST INTL  CLEAR     64  48  56 N15G23    30.19S

STATION/POSITION SKY/WX   TEMP    WIND        PRES    WAVE   SWELL
                          AIR SEA DIR/SP/G            HT/PER HT/PER
                          (F)     (DEG/KT/KT) (MB)    (FT/S) (FT/S)
VENICE                     55 67  360/  9/ 10 1023.7R
NAPLES                     52 75  360/  4/  5 1023.6R
26.0N   85.6W              69 80  340/ 16/ 21 1024.3F   5/ 7   3/16
DRY TORTUGAS               67      20/ 20/ 22 1022.5R
NW FL BAY                  59      10/ 15/ 19 1022.2F
SAND KEY                   65      20/ 21/ 26 1021.9F
SOMBRERO KEY               63      10/ 21/ 23 1021.8F
LONG KEY                   62 74   10/ 20/ 24 1022.3S
MOLASSES REEF              62 77  360/ 19/ 20 1020.5F

$$
FLZ067-068-071>074-168-172>174-270900-
SOUTHEAST FLORIDA

CITY           SKY/WX    TMP DP  RH WIND       PRES   REMARKS
W PALM BEACH   CLEAR     54  47  77 NW10      30.18R
FT LAUDER-EXEC CLEAR     56  46  69 NW7       30.18S
FT LAUDERDALE  CLEAR     56  46  69 N12       30.17S
POMPANO BEACH  CLEAR     56  45  66 NW14      30.18R
PEMBROKE PINES CLEAR     55  47  74 NW13      30.19S
OPA LOCKA        N/A    N/A N/A N/A MISG      30.18S
MIAMI          PTCLDY    57  44  62 NW9       30.19R
WEST KENDALL   CLEAR     56  48  74 N12       30.19R
HOMESTEAD      CLEAR     57  46  67 NW13      30.17S

STATION/POSITION SKY/WX   TEMP    WIND        PRES    WAVE   SWELL
                          AIR SEA DIR/SP/G            HT/PER HT/PER
                          (F)     (DEG/KT/KT) (MB)    (FT/S) (FT/S)
PORT EVERGLADES            58     310/ 12/ 15 1021.5
VIRGINIA KEY               58 76  340/  8/ 12 1021.9S
LAKE WORTH                 56 76  310/ 11/ 14 1021.6R
SETTLEMENT POINT           69     360/ 17/ 19 1021.4R

$$




USA.gov is the U.S. government's official web portal to all federal, state and local government web resources and services.